NOAA 16 DEB

Satellite information

Favourite Embed

Satellite Type and Status

DEBRISIN ORBIT

Key statistics

Satellite NOAA 16 DEB at a glance.

Uptime

8995

Days in orbit

Revolutions

≈ 14.5

Per day

Orbit

SSO

Sun Synchronous Orbit

Inclination

99.0

Latest

Satellite identification and parameters

Extended collection of information and parameters for NOAA 16 DEB.

Object identification

Identified? True

Debris? True

Object name: NOAA 16 DEB

International designator: 2000-055L

Object number (NORAD): 41053

Object ID (CCSDS): 41053

Country: UNITED STATES OF AMERICA (US)

Current information (Y/N): Y

RCS size: SMALL

Orbital parameters

Period: 99.482 minutes

Inclination: 99.0153 deg

SMA: 7111.991 km

Apoapsis: 751.788 km

Periapsis: 715.925 km

RAAN: 317.4114 deg

Eccentricy: 0.0025213

Argument of periapsis: 245.9195 deg

Mean anomaly: 113.9358 deg

Mean motion: 14.47491158 rev/day

Mean motion (dot): 0.00008652 rev/day2

B* drag term: 0.0023562 1/REarth

Two-line elements (TLE)

Creation date: May 8, 2025, 3:01 a.m.

Reference frame: TEME

Reference center: EARTH

Epoch: May 7, 2025, 12:05 p.m. UTC

TLE line 0: 0 NOAA 16 DEB

TLE line 1: 1 41053U 00055L 25127.50372075 .00008652 00000-0 23562-2 0 9990

TLE line 2: 2 41053 99.0153 317.4114 0025213 245.9195 113.9358 14.47491158491537

Live tracking on map

Real-time ground track for satellite NOAA 16 DEB.

In-orbit conjunctions

A list of the most updated potential collisions computed for object NOAA 16 DEB.

Target Orbit TCA Probability of collision Miss distance Type
COSMOS 1452 LEO 2024-09-25 20:16:35 0.0005789371 449.0 (m) PAYLOAD
COSMOS 1818 COOLANT LEO 2024-08-29 15:00:57 0.00018931 128.0 (m) DEBRIS

Associated space launch

The NOAA K, L and M POES satellites begin the fifth generation of improved environmental monitoring in support of NOAA missions. The instrument payload has significant improvements and additions/deletions. The instrument changes have effected the spacecraft subsystems and data formats.

NOAA 16 DEB was lifted into orbit during the mission ‘Titan II SLV | NOAA 16’, on board a Titan II SLV space rocket.

The launch took place on Sept. 21, 2000, 10:22 a.m. from Space Launch Complex 4W.

For more information about the launch, click the button.

Launch to space Titan II SLV | NOAA 16
Titan II SLV | NOAA 16

Agency: N/A

Status: Launch Successful

Launch date: Sept. 21, 2000, 10:22 a.m. UTC

Rocket: Titan II SLV

Launch pad: Space Launch Complex 4W

Location: Vandenberg SFB, CA, USA

...

Latest news about this satellite

There are no fresh news available about this satellite. Check back as we update our databases every day.


Newsletter sign-up

Weekly statistics, charts and insights to help you stay on top of the space industry.